Theta_e
347 350 346 342 339 337 342 348 349 347 346 339 337 344 342 352 356 357 357 356 356 352 354 354 352 352 353 352 350 346 344 343 340 337 336 333 331 329 326 323 322 321 322
348 352 352 348 345 343 339 337 338 336 332 344 347 348 349 351 356 359 356 355 350 349 355 352 351 353 351 353 353 350 345 342 340 335 334 330 329 329 326 325 326 325 320
350 348 352 349 344 342 340 337 333 335 344 346 351 354 357 356 361 360 356 349 342 353 353 352 351 350 347 353 350 345 346 340 337 335 331 330 329 327 326 325 326 326 322
349 349 349 350 347 340 339 334 331 343 344 345 349 354 360 358 361 353 350 339 353 353 351 347 345 343 346 351 348 346 343 338 333 333 331 331 329 327 326 324 326 325 322
350 350 350 350 350 345 335 331 335 341 342 346 351 357 361 361 351 350 343 342 350 349 351 350 341 344 347 350 349 347 341 335 332 332 331 330 329 327 329 326 325 327 326
352 351 351 350 351 349 339 331 335 340 344 353 356 362 361 358 352 349 333 339 349 352 349 344 344 345 348 348 347 344 337 330 334 334 331 331 330 328 328 327 327 328 326
354 357 352 351 351 353 350 341 339 348 356 358 361 361 361 355 350 345 327 336 347 350 345 345 343 345 346 346 343 338 333 335 336 335 333 330 330 330 329 328 327 329 328
357 358 358 355 353 355 357 354 353 354 358 360 362 360 357 352 349 337 326 335 344 346 347 344 345 344 344 344 341 337 335 329 334 334 334 333 332 330 329 327 327 329 328
363 360 361 359 357 358 360 360 356 358 359 361 361 360 357 349 347 326 332 347 346 338 339 343 344 344 343 342 341 333 327 325 328 333 333 335 333 330 331 328 329 328 328
359 362 361 361 362 363 364 360 358 359 360 361 359 358 351 349 343 321 338 350 350 342 329 340 342 343 342 341 340 335 332 325 328 329 332 333 333 331 327 328 326 330 329
360 361 360 361 360 362 363 363 360 361 361 360 357 356 350 347 333 317 325 329 340 343 333 339 341 342 342 340 340 338 334 328 325 326 324 328 330 327 328 331 331 331 331
353 358 360 359 361 362 363 365 363 362 361 358 357 351 348 336 322 320 317 316 320 327 327 336 341 342 339 336 336 336 325 324 323 329 330 329 326 324 326 328 331 330 332
346 353 356 357 357 357 359 364 363 361 358 356 351 345 340 327 324 320 315 315 316 320 326 336 339 337 336 337 337 331 324 330 333 333 333 331 331 330 328 328 328 331 331
338 353 352 352 352 354 354 359 357 354 354 352 347 342 340 337 328 318 319 317 321 323 329 333 337 337 339 338 335 325 332 333 334 334 334 333 332 331 330 330 330 327 328
337 346 349 351 350 347 338 336 349 352 351 347 342 339 338 333 327 316 323 326 319 319 322 330 334 336 338 338 336 329 334 334 334 334 332 332 333 332 331 330 327 329 328
335 338 347 349 348 342 338 336 344 338 348 345 338 337 335 329 317 314 314 315 315 316 323 324 333 334 336 338 338 336 336 334 332 331 333 332 331 331 331 330 330 330 330
335 340 340 348 348 347 339 337 338 336 336 336 333 332 328 323 314 313 314 314 314 315 320 324 330 332 334 335 335 338 337 334 335 331 331 332 332 331 330 331 332 331 330
330 339 338 344 347 345 341 337 333 330 331 333 331 317 317 314 313 313 313 314 324 330 329 324 327 328 333 333 333 333 336 337 336 335 335 331 333 331 330 330 331 332 332
332 335 338 340 344 343 342 339 336 332 332 328 320 316 314 313 312 312 314 325 329 328 328 323 323 325 326 327 329 331 332 332 333 334 335 336 334 332 334 333 333 333 333
331 334 336 338 340 341 336 336 329 324 323 320 318 315 313 312 312 317 325 326 327 326 326 325 323 320 323 323 324 325 325 327 328 329 331 332 333 333 334 334 334 333 333
329 332 335 336 338 338 331 323 321 323 319 318 317 315 312 319 320 319 319 321 322 321 321 321 320 318 316 316 319 319 319 319 320 323 325 326 330 331 332 333 333 334 333
330 332 333 333 332 330 326 328 326 325 321 320 318 315 318 319 319 318 318 318 318 318 317 318 316 315 315 313 312 315 316 315 316 318 319 320 322 325 327 329 330 331 332
330 331 332 331 330 327 326 325 323 320 319 315 312 315 316 315 316 316 316 314 313 313 312 312 312 312 311 311 311 310 312 312 312 313 315 317 318 318 318 323 325 327 329
329 331 331 329 326 326 324 321 319 318 317 315 313 313 313 312 311 311 312 312 311 311 311 310 310 310 310 309 308 310 310 311 311 312 312 312 313 313 314 316 317 318 322
328 327 327 326 326 324 324 322 321 319 318 319 319 311 311 311 311 311 310 310 309 309 309 309 310 309 309 308 308 307 307 309 309 309 310 310 310 310 310 310 311 312 314
325 326 326 326 325 324 323 321 319 319 318 317 314 311 311 310 310 310 309 308 308 307 307 307 306 306 306 305 305 305 306 306 307 308 309 310 311 311 311 309 309 310 311
Wind_Speed
24 25 26 26 25 24 27 26 24 21 21 20 13 12 10 10 12 12 15 15 19 20 20 22 19 19 18 15 8 3 5 3 7 6 7 8 3 1 6 9 8 9 10
25 26 26 24 23 24 23 23 22 20 15 13 13 12 11 11 10 13 15 15 18 16 18 18 18 18 18 14 6 1 4 4 5 13 12 8 5 4 6 10 9 6 6
31 26 31 26 23 23 21 19 19 18 16 14 13 13 11 10 10 14 13 17 15 10 14 14 14 16 12 9 6 4 5 9 10 12 12 9 9 7 10 14 9 4 5
32 31 29 32 28 23 22 20 22 21 18 17 16 15 13 10 12 13 14 13 10 10 11 10 14 14 9 7 7 3 10 7 14 9 11 11 10 8 8 10 9 8 2
32 33 31 30 33 27 25 26 26 24 21 20 18 12 12 14 12 10 12 7 9 9 9 12 14 16 11 6 6 2 10 10 17 9 10 12 10 11 9 7 9 9 4
27 33 34 32 32 33 30 30 30 26 23 19 14 14 12 18 13 9 7 6 5 2 7 9 13 14 10 7 5 10 6 11 13 7 11 12 11 10 10 10 10 10 8
20 25 35 35 33 35 34 32 30 26 22 18 15 18 24 21 11 7 5 5 1 4 6 7 10 10 9 9 9 11 13 10 8 5 6 9 12 15 11 10 9 7 4
24 23 31 35 36 34 36 35 32 28 24 18 22 26 25 17 9 5 5 3 1 4 3 4 6 7 7 6 6 10 11 10 9 6 3 6 3 13 12 9 9 8 7
18 24 26 32 35 34 35 35 33 31 25 28 28 28 24 14 8 7 6 4 5 7 3 2 2 3 5 7 3 8 6 7 8 6 5 6 5 10 9 10 9 8 6
18 22 26 28 30 32 36 39 37 33 33 33 30 28 22 14 11 9 12 9 8 4 4 3 0 3 4 7 6 6 6 8 7 5 7 7 5 4 6 7 7 7 8
20 18 24 28 33 37 38 36 37 38 36 35 30 26 19 17 14 12 17 16 12 5 3 2 2 5 5 7 8 5 4 6 6 6 5 8 9 8 12 9 7 5 4
22 23 23 28 33 35 37 38 41 39 36 33 30 24 21 17 15 13 13 11 12 11 5 4 3 6 6 6 7 7 5 6 7 9 6 5 3 6 11 9 5 7 5
21 22 25 26 31 31 35 40 37 35 34 31 25 20 16 16 13 13 11 9 10 9 5 5 5 7 8 6 5 8 9 11 9 5 8 7 1 1 2 4 7 7 6
23 21 22 23 26 20 6 34 27 28 30 26 22 19 15 10 11 14 10 9 8 8 9 8 8 8 6 6 7 12 13 9 8 6 5 5 8 8 6 9 8 6 7
24 23 25 17 20 32 18 14 13 26 23 21 22 23 24 22 17 13 15 12 9 8 10 11 10 9 7 7 9 11 7 4 13 10 8 9 7 6 5 4 7 8 5
23 22 25 22 16 16 30 38 44 27 35 25 23 30 26 16 12 11 11 10 9 9 10 11 13 13 13 12 12 14 12 11 8 10 12 10 10 8 7 10 6 9 9
25 21 23 24 23 19 35 39 16 9 13 20 20 22 22 17 15 14 11 10 9 8 8 9 9 11 12 13 14 13 15 18 13 15 14 13 13 13 13 13 13 10 12
28 23 22 29 26 26 30 23 49 22 37 35 33 27 23 17 16 15 13 11 13 12 7 9 9 9 10 12 11 9 11 15 18 18 16 19 17 18 17 18 18 14 12
25 26 20 28 34 31 33 28 37 46 43 38 28 24 18 16 15 13 15 14 9 10 8 8 10 10 9 9 10 10 10 10 12 13 15 17 19 22 17 15 15 15 13
24 26 20 26 35 31 31 29 29 31 26 20 18 15 15 15 15 19 16 12 13 11 10 5 4 8 11 10 8 8 7 10 11 11 13 14 16 22 23 18 18 19 20
24 23 18 28 31 32 27 23 22 18 19 15 16 20 19 16 9 12 12 13 12 12 15 12 6 3 2 7 11 7 4 8 8 9 10 10 13 17 19 25 26 21 19
17 17 18 30 28 27 28 26 28 22 23 25 21 20 21 19 21 18 17 19 19 18 16 17 13 11 11 9 5 10 10 10 11 13 10 11 14 17 17 19 21 22 25
14 15 24 32 32 35 32 28 27 23 20 18 18 23 19 18 19 21 18 14 12 10 10 10 13 9 8 7 6 8 10 9 10 9 12 13 14 14 15 18 18 19 22
9 21 31 34 39 38 36 34 32 25 17 13 16 16 16 16 16 14 13 12 11 8 9 7 6 6 4 4 4 5 4 3 4 6 6 7 9 11 13 16 17 17 20
15 23 33 34 31 31 28 25 22 19 16 16 13 10 9 11 12 14 12 12 11 11 9 7 4 5 4 7 6 6 8 8 7 8 8 10 12 13 15 16 16 17 18
12 17 21 24 24 23 20 18 16 14 13 14 14 13 10 8 12 11 9 8 6 5 5 2 2 4 4 4 5 5 4 5 6 6 7 8 9 9 11 13 16 18 18
Wind_Direction
232 226 226 228 229 226 223 227 228 230 238 251 257 274 288 299 304 320 322 336 326 330 338 337 346 346 345 341 327 232 183 141 180 166 145 161 191 100 98 125 125 121 136
234 219 230 228 228 229 226 228 233 237 228 239 260 273 285 287 310 308 329 325 328 334 332 345 346 349 344 343 346 121 173 160 179 153 165 164 156 161 126 123 93 90 131
228 229 224 229 228 228 229 225 222 216 230 247 258 270 282 293 295 307 313 327 335 346 336 342 333 331 342 345 328 328 175 136 160 170 156 154 162 152 140 136 146 202 137
225 231 227 227 229 227 227 223 215 220 237 251 252 244 254 276 269 304 319 328 355 340 336 346 342 349 1 344 348 333 150 130 139 148 160 159 170 142 128 151 151 162 121
218 228 232 236 232 228 224 222 221 230 242 249 245 238 244 252 277 293 318 329 337 3 3 343 356 10 28 21 10 46 150 145 142 144 169 166 162 151 164 151 148 146 164
224 226 232 235 235 230 225 224 228 235 244 239 235 217 225 248 266 295 307 312 343 340 330 347 358 16 41 31 39 119 128 143 143 160 175 175 172 169 177 174 168 163 175
227 236 228 231 236 230 227 226 231 235 231 228 214 213 226 241 252 279 282 287 294 322 339 10 357 28 55 68 101 124 138 148 173 183 224 185 187 183 182 194 179 172 204
252 237 232 225 232 230 226 226 223 226 220 216 212 225 236 239 237 252 231 253 303 339 351 356 12 42 81 86 111 140 158 177 178 169 201 217 190 187 187 203 192 197 191
263 255 240 229 227 229 222 219 218 216 213 209 218 227 237 228 229 212 187 188 272 322 327 9 9 74 108 114 119 160 155 158 178 181 197 170 212 193 184 207 180 143 154
270 265 246 235 227 222 219 218 217 212 209 212 220 222 229 219 220 202 166 172 254 306 345 102 172 133 148 152 152 175 176 164 174 177 184 183 195 200 192 170 181 172 187
283 271 254 242 235 225 219 213 212 208 211 215 215 223 213 211 209 192 186 187 197 214 295 143 114 171 168 171 169 170 186 170 156 150 163 189 208 192 170 159 169 183 217
294 272 265 250 235 227 219 213 213 211 208 205 210 208 207 202 198 195 196 196 190 201 197 186 145 151 158 176 175 182 155 159 145 129 113 87 83 197 198 192 182 203 264
301 292 265 257 249 237 218 210 206 211 201 202 204 191 203 198 199 195 197 195 189 188 168 153 155 149 144 146 144 145 127 106 105 135 194 216 245 151 102 173 234 237 242
301 290 290 272 262 256 89 184 199 209 202 195 189 177 191 211 205 176 168 175 181 173 165 155 153 161 144 142 129 139 127 138 212 224 187 186 190 193 222 228 239 239 243
302 287 288 283 276 264 244 205 255 222 209 199 174 182 189 195 216 190 175 186 183 164 160 160 167 169 155 161 150 157 144 211 204 160 171 183 202 228 250 232 221 201 213
297 285 281 285 272 213 198 210 231 215 182 179 194 195 199 203 185 189 190 197 200 180 172 171 178 188 186 192 194 188 182 167 169 191 172 187 209 220 229 223 250 252 237
293 289 272 264 248 231 213 226 170 166 132 176 200 220 208 189 191 184 181 177 192 181 188 174 180 183 198 200 208 202 201 192 200 193 190 197 196 208 208 211 227 235 234
286 280 266 255 239 212 208 181 203 211 244 231 216 215 207 188 188 177 170 169 155 146 196 164 186 191 206 196 193 205 222 220 216 223 223 214 211 216 222 236 247 261 251
280 273 265 248 246 224 204 195 192 203 210 211 209 207 196 184 183 175 158 151 149 168 203 189 190 187 208 214 200 202 216 226 241 239 234 236 231 223 224 226 244 241 250
269 267 258 244 233 230 208 207 194 189 193 197 200 199 193 187 176 159 154 143 154 172 159 205 233 224 208 212 217 216 232 237 230 242 243 242 242 235 229 219 230 230 240
267 261 252 233 235 231 207 191 184 191 177 182 189 192 179 149 150 171 163 153 162 168 160 158 205 232 191 209 206 210 236 258 260 253 244 245 248 249 250 248 243 240 235
257 254 243 219 212 199 185 175 170 175 174 187 200 182 162 160 176 166 176 181 189 196 198 198 196 194 201 207 192 176 206 237 246 243 242 248 254 254 261 259 255 253 252
255 239 219 200 186 164 167 168 162 166 179 180 161 172 166 183 186 190 197 204 200 189 183 193 193 205 212 226 228 223 233 251 262 260 257 258 258 257 260 265 263 263 259
245 217 194 187 177 175 167 160 162 163 159 141 151 174 195 185 183 176 185 184 167 161 161 195 212 233 242 232 246 277 299 274 265 269 285 282 275 273 267 264 263 270 267
214 189 177 172 169 167 170 183 181 184 186 180 183 228 179 183 164 166 164 168 182 183 185 208 221 232 237 246 261 285 297 317 313 304 295 292 291 287 285 282 282 279 267
167 173 171 173 177 181 180 177 174 180 187 189 178 193 170 153 142 165 162 153 147 135 144 199 187 184 182 270 320 1 17 357 347 340 332 336 335 333 323 301 277 262 265